Regional Weather Roundup
Issued by NWS

Home | Current Version | Previous Version | Graphics & Text | Print | Product List | Glossary On
Versions: 1 2 3 4 5 6 7 8 9 10 11 12 13 14 15 16 17 18 19 20 21 22 23 24 25 26 27 28 29 30 31 32 33 34 35 36 37 38 39 40 41 42 43 44 45 46 47 48 49 50
723
ASUS43 KDTX 240101
RWRMI
MICHIGAN HOURLY REGIONAL WEATHER ROUNDUP
NATIONAL WEATHER SERVICE DETROIT/PONTIAC MI
900 PM EDT SAT SEP 23 2017

NOTE: "FAIR" INDICATES FEW OR NO CLOUDS BELOW 12,000 FEET WITH NO
SIGNIFICANT WEATHER AND/OR OBSTRUCTION TO VISIBILITY.

MIZ047>049-052>055-059>063-066>070-074>076-081>083-240200-
SOUTHEAST LOWER MICHIGAN

CITY           SKY/WX    TMP DP  RH WIND       PRES   REMARKS
ADRIAN         CLEAR     75  61  61 SE3       30.12S
ALMA           CLEAR     81  57  44 CALM      30.09S
ANN ARBOR      CLEAR     70  64  81 CALM      30.12R
BAD AXE        CLEAR     74  65  75 CALM      30.11S
CARO           CLEAR     73  65  78 CALM      30.10R
DETROIT CITY   CLEAR     78  66  66 S5        30.11S
DETROIT        CLEAR     76  64  66 S5        30.12S
FLINT          CLEAR     79  62  56 S6        30.11R
GROSSE ILE     CLEAR     71  68  91 CALM      30.10F
HILLSDALE      CLEAR     77  59  53 E6        30.13R
HOWELL         CLEAR     78  62  59 S5        30.12R

CITY           SKY/WX    TMP DP  RH WIND       PRES   REMARKS
JACKSON        CLEAR     81  60  48 E5        30.12R
LAMBERTVILLE   CLEAR     70  65  85 CALM      30.11S
LANSING        CLEAR     81  58  45 SE8       30.11R
LAPEER         FAIR      72  66  81 CALM      30.12R
MASON          CLEAR     78  62  56 SE3       30.11S
MONROE         CLEAR     71  65  82 CALM      30.11S
PONTIAC        CLEAR     80  65  59 SE3       30.11R
PORT HOPE        N/A     77  65  66 S5        30.09R
PORT HURON     CLEAR     70  66  88 CALM      30.11S
TRI CITIES     CLEAR     80  64  58 S6        30.09R
MIDLAND        FAIR      74  67  76 CALM      30.08R
TROY           CLEAR     81  64  57 S3        30.13S
SAGINAW HB     CLEAR     77  61  57 SE5       30.09R
$$
MIZ043>046-050>051-056>058-064>065-071>073-077>080-240200-
SOUTHWEST LOWER MICHIGAN

CITY           SKY/WX    TMP DP  RH WIND       PRES   REMARKS
BATTLE CREEK   CLEAR     80  62  54 S5        30.11R
BENTON HARBOR  CLEAR     72  67  84 CALM      30.07R
BIG RAPIDS     CLEAR     74  66  76 CALM      30.09R
COLDWATER      CLEAR     75  62  64 CALM      30.11R
FREMONT        FAIR      75  65  71 CALM      30.07R
HOLLAND        CLEAR     72  65  78 CALM      30.07R
GRAND RAPIDS   CLEAR     80  61  52 S5        30.08R
IONIA          FAIR      79  58  49 SE6       30.08R
KALAMAZOO      CLEAR     76  60  57 CALM      30.10R
LUDINGTON      CLEAR     68  65  91 CALM      30.06S
MARSHALL       CLEAR     72  62  69 CALM      30.10R
MUSKEGON       PTCLDY    76  67  73 CALM      30.07R
SOUTH HAVEN    CLEAR     72  69  89 CALM      30.07R
$$
MIZ016>042-240200-
NORTHERN LOWER MICHIGAN

CITY           SKY/WX    TMP DP  RH WIND       PRES   REMARKS
ALPENA         CLEAR     80  71  74 S7        30.07R
BEAVER ISLAND  CLEAR     76  64  65 SW9       30.05R
BELLAIRE       CLEAR     70  67  92 CALM      30.07R
CADILLAC       CLEAR     74  64  71 CALM      30.11R
CHARLEVOIX     CLEAR     78  64  62 S5        30.08S
FRANKFORT      CLEAR     74  67  79 CALM      30.06S
GAYLORD        CLEAR     74  66  76 CALM      30.11R
GRAYLING       CLEAR     71  66  84 CALM      30.11S
HARBOR SPRINGS CLEAR     73  68  84 CALM      30.06S
HOUGHTON LAKE  CLEAR     73  67  81 CALM      30.11R
MANISTEE       CLEAR     71  68  90 E3        30.06S
OSCODA         CLEAR     74  67  78 SW3       30.08S
PELLSTON       CLEAR     69  65  86 CALM      30.06R
ROGERS CITY    CLEAR     73  69  87 CALM      30.07S
TRAVERSE CITY  PTCLDY    78  67  68 CALM      30.05R
$$
MIZ007>008-015-240200-
EASTERN UPPER MICHIGAN

CITY           SKY/WX    TMP DP  RH WIND       PRES   REMARKS
KINROSS        CLEAR     73  65  75 SW3       30.06R
MACKINAC ISLAN CLEAR     78  62  57 SW8       30.05S
NEWBERRY       CLEAR     70  68  95 SW9       30.04S
S. S. MARIE    CLEAR     73  66  78 S3        30.04R
MUNISING         N/A     75  71  87 S3        30.01R
$$
MIZ004>006-011>014-085-240200-
CENTRAL UPPER MICHIGAN

CITY           SKY/WX    TMP DP  RH WIND       PRES   REMARKS
MANISTIQUE     CLEAR     68  62  81 S5        30.03S
ESCANABA       PTCLDY    76  68  76 SW10      30.01S
MENOMINEE      PTCLDY    76  67  73 SW6       30.03S
SAWYER-GWINN   CLEAR     75  66  73 S7        30.03R
$$
MIZ001>003-009>011-084-240200-
WESTERN UPPER MICHIGAN

CITY           SKY/WX    TMP DP  RH WIND       PRES   REMARKS
IRON MOUNTAIN  CLEAR     75  65  70 S3        30.02R
HOUGHTON       PTCLDY    72  68  87 NE3       29.99R
COPPER HARBOR    N/A     69  66  90 W3        29.97R
IRONWOOD       CLOUDY    77  70  79 S6        30.00R
$$

ABBREVIATIONS USED IN REMARKS
   TC - TEMPERATURE IN CELSIUS
  WCI - WIND CHILL INDEX
   HX - HEAT INDEX
  VSB - VISIBILITY





USA.gov is the U.S. government's official web portal to all federal, state and local government web resources and services.